Location: Unspecified
(0.0000°N, 0.0000°E)
Time: 16:29:38
(UTC+00:00)

OBJECT H - Visible Passes

Search period start: 21 May 2026 00:00
Search period end: 31 May 2026 00:00
Orbit: 536 x 549 km, 97.4° (Epoch: 20 May)

Date Brightness Start Highest point End Pass type
(mag) Time Alt. Az. Time Alt. Az. Time Alt. Az.
21 May ? 04:36:50 35° WNW 04:36:50 35° WNW 04:39:39 10° NNW visible
22 May ? 04:30:11 44° WNW 04:30:11 44° WNW 04:33:13 10° NNW visible
23 May ? 04:23:32 54° NW 04:23:32 54° NW 04:26:44 10° NNW visible
24 May ? 04:16:53 62° NNW 04:16:53 62° NNW 04:20:11 10° NNW visible
25 May ? 04:10:14 61° NNE 04:10:14 61° NNE 04:13:36 10° N visible
26 May ? 04:03:34 52° NE 04:03:34 52° NE 04:06:57 10° N visible
27 May ? 03:56:55 42° ENE 03:56:55 42° ENE 04:00:16 10° N visible
28 May ? 03:50:14 34° ENE 03:50:14 34° ENE 03:53:30 10° NNE visible
29 May ? 03:43:35 27° ENE 03:43:35 27° ENE 03:46:41 10° NNE visible
30 May ? 03:36:55 22° ENE 03:36:55 22° ENE 03:39:47 10° NNE visible
